Regional Weather Roundup
Issued by NWS

Home | Current Version | Previous Version | Graphics & Text | Print | Product List | Glossary On
Versions: 1 2 3 4 5 6 7 8 9 10 11 12 13 14 15 16 17 18 19 20 21 22 23 24 25 26 27 28 29 30 31 32 33 34 35 36 37 38 39 40 41 42 43 44 45 46 47 48 49 50
000
ASUS43 KLOT 311408
RWRIL

ILLINOIS REGIONAL WEATHER ROUNDUP
NATIONAL WEATHER SERVICE CHICAGO/ROMEOVILLE IL
900 AM CDT WED AUG 31 2016

NOTE: "FAIR" INDICATES FEW OR NO CLOUDS BELOW 12,000 FEET WITH NO
SIGNIFICANT WEATHER AND/OR OBSTRUCTIONS TO VISIBILITY.

* THESE STATIONS ARE NOT UNDER NWS QUALITY CONTROL. THEY ALSO MAY NOT
  REPORT WEATHER SUCH AS PRECIPITATION OR FOG.

ILZ001-002-007-009-015-016-024-311500-
NORTHWEST ILLINOIS

CITY           SKY/WX    TMP DP  RH WIND       PRES   REMARKS
MOLINE         CLOUDY    71  64  78 NE8       30.10S
STERLING*      PTSUNNY   70  66  87 NE7       30.10S
SAVANNA*       CLOUDY    68  64  86 NE8       30.11S
$$

ILZ003-004-008-010-011-017-018-311500-
NORTH CENTRAL ILLINOIS

CITY           SKY/WX    TMP DP  RH WIND       PRES   REMARKS
ROCKFORD       CLOUDY    71  60  68 NE13      30.11S
FREEPORT*      CLOUDY    67  64  93 N7        30.13S
ROCHELLE*      MOSUNNY   68  63  84 N10       30.10S
DE KALB*       MOSUNNY   68  62  82 N9        30.10S
$$

ILZ005-006-012>014-019>023-311500-
NORTHEAST ILLINOIS

CITY           SKY/WX    TMP DP  RH WIND       PRES   REMARKS
CHICAGO-OHARE  PTSUNNY   71  62  73 N10       30.06F
CHICAGO-MIDWAY CLOUDY    73  64  73 N12       30.05F
AURORA         MOSUNNY   71  63  75 N12       30.08S
LANSING*       CLOUDY    72  69  91 N3G16     30.05R
JOLIET*        CLOUDY    74  68  82 NE8       30.07R
WAUKEGAN       MOSUNNY   70  61  73 N8        30.07S
DUPAGE AIRPORT MOSUNNY   71  63  75 N9        30.07S
KANKAKEE*      MOSUNNY   74  70  86 N5        30.05F
WHEELING       MOSUNNY   72  62  71 N10       30.08S
MORRIS*        CLOUDY    72  68  87 CALM      30.06R
ROMEOVILLE*    CLOUDY    72  68  89 NE9       30.07R
NORTHERLY ISL    N/A     70  63  78 N13         N/A
$$

LMZ740>746-311500-
SOUTHERN LAKE MICHIGAN

STATION/POSITION SKY/WX   TEMP    WIND        PRES    VSBY  WAVE
                          AIR SEA DIR/SP/G                  HT/PER
                          (F)     (DEG/KT/KT) (MB)    (MI)  (FT/S)
SOUTHERN BUOY              71 75   30/ 17/ 19 1016.8R         4/ 6
WILMETTE HARBOR            68 70   20/ 17/ 21   N/A           5/ 5
HARRISON CRIB              70     340/ 19/ 20   N/A
BURNHAM HARBOR             70     350/  9/ 14   N/A
CALUMET HARBOR             71     320/  9/ 16 1017.1S
BURNS HARBOR               73     340/  9/ 12 1017.6S
MICHIGAN CITY              73     320/  9/ 10   N/A
MICHIGAN CITY 6N           75 72  340/ 10/ 12   N/A           2/ 3
ST. JOSEPH                 74 74  350/  8/ 12 1016.2F         1/ 3
$$

ILZ025>027-034>036-040-047-049-050-058-095>099-311500-
WEST-CENTRAL ILLINOIS

CITY           SKY/WX    TMP DP  RH WIND       PRES   REMARKS
QUINCY         CLOUDY    73  71  93 N9        30.08S
GALESBURG*     CLOUDY    70  66  89 N10       30.09S
MACOMB*        CLOUDY    71  69  92 N8        30.10S
JACKSONVILLE*  PTSUNNY   73  72  96 CALM      30.06S FOG
PITTSFIELD*    CLOUDY    74  73  94 CALM      30.08S
$$

ILZ028>032-037-038-041>044-048-051>054-059>061-311500-
CENTRAL ILLINOIS

CITY           SKY/WX    TMP DP  RH WIND       PRES   REMARKS
PONTIAC        PTSUNNY   73  72  96 N5        30.07S
DECATUR        MOSUNNY   77  69  76 N7        30.05F
PEORIA         PTSUNNY   71  71 100 N5        30.07S
LACON*         PTSUNNY   72  68  88 N5        30.07R
LINCOLN*       MOSUNNY   75  73  93 N5        30.05F
SPRINGFIELD    PTSUNNY   75  72  90 CALM      30.06S
TAYLORVILLE    PTSUNNY   73  73 100 CALM      30.05S FOG
$$

ILZ033-039-045-046-055>057-062-063-311500-
EAST-CENTRAL ILLINOIS

CITY           SKY/WX    TMP DP  RH WIND       PRES   REMARKS
CHAMPAIGN      PTSUNNY   75  68  78 N3        30.05F
RANTOUL*       MOSUNNY   76  71  83 CALM      30.05S
MATTOON        FOG       71  70  96 N5        30.04S VSB 1/4
PARIS*         CLOUDY    72  71  98 CALM      30.05S FOG
$$

ILZ079-100>102-311500-
SOUTHWEST ILLINOIS

CITY           SKY/WX    TMP DP  RH WIND       PRES   REMARKS
BELLEVILLE     CLOUDY    74  74 100 VRB5      30.05S
CAHOKIA*       CLOUDY    76  72  87 CALM      30.05F FOG
SPARTA*        CLOUDY    71  71  99 CALM      30.07S FOG
$$

ILZ064>066-069>071-074>076-080>082-084>086-088>090-092>094-311500-
SOUTH-CENTRAL ILLINOIS

CITY           SKY/WX    TMP DP  RH WIND       PRES   REMARKS
CARBONDALE     CLOUDY    73  71  93 N3        30.06S FOG
CAIRO*         SUNNY     77  73  90 N6        30.03S
EFFINGHAM*     CLOUDY    74  74 100 W3        30.06S FOG
MARION         CLOUDY    73  73 100 N6        30.05S FOG
MT. VERNON     CLOUDY    75  70  83 CALM      30.06S
CENTRALIA*     CLOUDY    74  74 100 CALM      30.05S FOG
SALEM*         FOG       74  73  95 CALM      30.06R VSB 1
METROPOLIS*    SUNNY     79  73  82 CALM      30.04R HX  82
$$

ILZ067-068-072-073-078-083-087-091-311500-
SOUTHEAST ILLINOIS

CITY           SKY/WX    TMP DP  RH WIND       PRES   REMARKS
LAWRENCEVILLE  SUNNY     78  73  84 CALM      30.04S HX  81
FLORA*         FOG       74  73  98 W3        30.05S VSB 1
FAIRFIELD*       N/A     76  73  90 CALM      30.04S
HARRISBURG*    MOSUNNY   77  73  88 N8        30.04S
ROBINSON*      SUNNY     75  72  91 N5        30.05R
CARMI*         SUNNY     77  73  88 N7        30.03S
$$

ABBREVIATIONS USED IN REMARKS
   TC - TEMPERATURE IN CELSIUS
  WCI - WIND CHILL INDEX
   HX - HEAT INDEX
  VSB - VISIBILITY
$$





USA.gov is the U.S. government's official web portal to all federal, state and local government web resources and services.